contact:dominique.lefevre@mio.osupytheas.fr, maurice.libes@osupytheas.fr, didier.mallarino@osupytheas.fr
Project:EMSO http://www.emso-fr.org/EMSO-France
Depth: 2436.0 m
Title:EMSO Ligure Ouest : Data MII capteur AQUADOPP
Date,Latitude,Longitude,X_East,Y_North,Z_Up,Amplitude_X,Amplitude_Y,Amplitude_Z,Batterie,SoundSpeed,Heading,Pitch,Roll,Pressure,TIS,Speed,Direction
, degrees North, degrees East, m.s-1, m.s-1,m.s-1, 1, 1, 1, Volt, m.s-1, degree, degree, degree, dbar, degree_C, m.s-1, degree
2020-04-19T00:04:03,42.805,6.029,-0.021,0.047,0.022,105.0,117.0,100.0,13.4,1505.2,324.4,-0.7,1.8,2470.208,13.3,0.051,335.9
2020-04-19T00:07:03,42.805,6.029,-0.031,0.038,0.0,103.0,117.0,101.0,13.3,1505.3,322.9,-0.7,1.8,2470.215,13.31,0.049,320.8
2020-04-19T00:10:03,42.805,6.029,-0.014,0.04,0.022,103.0,116.0,101.0,13.4,1505.3,326.0,-0.7,1.9,2470.218,13.32,0.042,340.7
2020-04-19T00:13:03,42.805,6.029,-0.058,0.044,-0.026,103.0,118.0,100.0,13.3,1505.3,328.0,-0.7,1.8,2470.241,13.32,0.072,307.2
2020-04-19T00:16:03,42.805,6.029,-0.056,0.035,0.002,103.0,116.0,102.0,13.4,1505.3,325.4,-0.7,1.9,2470.214,13.32,0.066,302.0
2020-04-19T00:19:03,42.805,6.029,-0.054,0.034,-0.023,104.0,116.0,101.0,13.4,1505.3,326.7,-0.7,1.8,2470.23,13.32,0.063,302.2
2020-04-19T00:22:03,42.805,6.029,-0.059,0.04,-0.005,104.0,115.0,101.0,13.3,1505.3,326.4,-0.7,1.8,2470.24,13.32,0.071,304.1
2020-04-19T00:25:03,42.805,6.029,-0.033,0.043,0.032,104.0,116.0,103.0,13.3,1505.3,324.6,-0.7,1.8,2470.203,13.32,0.054,322.5
2020-04-19T00:28:03,42.805,6.029,-0.04,0.051,0.005,104.0,116.0,101.0,13.3,1505.3,323.0,-0.7,1.8,2470.196,13.32,0.064,321.9
2020-04-19T00:31:03,42.805,6.029,-0.03,0.057,0.024,103.0,117.0,101.0,13.4,1505.3,327.0,-0.7,1.8,2470.209,13.32,0.064,332.2
2020-04-19T00:34:03,42.805,6.029,-0.019,0.039,0.036,105.0,117.0,100.0,13.4,1505.3,326.0,-0.7,1.8,2470.239,13.32,0.043,334.0
2020-04-19T00:37:03,42.805,6.029,-0.049,0.043,-0.007,102.0,115.0,102.0,13.4,1505.3,325.9,-0.7,1.8,2470.213,13.32,0.065,311.3
2020-04-19T00:40:03,42.805,6.029,-0.027,0.036,-0.002,103.0,119.0,101.0,13.3,1505.3,323.3,-0.7,1.9,2470.235,13.32,0.045,323.1
2020-04-19T00:43:03,42.805,6.029,-0.043,0.046,-0.007,105.0,117.0,101.0,13.4,1505.3,328.2,-0.7,1.9,2470.211,13.32,0.062,316.9
2020-04-19T00:46:03,42.805,6.029,-0.039,0.051,0.008,104.0,114.0,101.0,13.4,1505.3,326.1,-0.7,1.8,2470.185,13.32,0.064,322.6
2020-04-19T00:49:03,42.805,6.029,-0.077,0.049,-0.021,104.0,115.0,101.0,13.4,1505.3,323.9,-0.7,1.8,2470.249,13.32,0.091,302.5
2020-04-19T00:52:03,42.805,6.029,-0.04,0.041,-0.017,104.0,115.0,101.0,13.4,1505.3,323.9,-0.7,1.8,2470.219,13.32,0.057,315.7
2020-04-19T00:55:03,42.805,6.029,-0.058,0.025,-0.004,105.0,115.0,102.0,13.4,1505.3,322.9,-0.7,1.8,2470.202,13.32,0.063,293.3
2020-04-19T00:58:03,42.805,6.029,-0.047,0.045,0.001,104.0,117.0,101.0,13.4,1505.3,324.7,-0.7,1.8,2470.203,13.32,0.065,313.8
2020-04-19T01:04:03,42.805,6.029,-0.027,0.04,0.005,105.0,117.0,103.0,13.4,1505.2,327.2,-0.7,1.8,2470.308,13.3,0.048,326.0
2020-04-19T01:07:03,42.805,6.029,-0.026,0.041,-0.001,103.0,116.0,101.0,13.4,1505.3,328.2,-0.8,1.8,2470.305,13.31,0.048,327.6
2020-04-19T01:10:03,42.805,6.029,-0.081,0.052,-0.038,105.0,115.0,101.0,13.4,1505.3,324.1,-0.7,1.8,2470.285,13.32,0.096,302.7
2020-04-19T01:16:03,42.805,6.029,-0.034,0.028,-0.012,106.0,115.0,101.0,13.4,1505.2,323.3,-0.7,1.8,2470.319,13.3,0.044,309.5
2020-04-19T01:19:03,42.805,6.029,-0.045,0.043,0.026,103.0,114.0,100.0,13.4,1505.3,323.2,-0.7,1.8,2470.302,13.31,0.062,313.7
2020-04-19T01:22:03,42.805,6.029,-0.029,0.057,0.019,103.0,115.0,102.0,13.4,1505.3,326.6,-0.7,1.8,2470.261,13.31,0.063,333.0
2020-04-19T01:25:03,42.805,6.029,-0.062,0.054,0.011,104.0,116.0,102.0,13.3,1505.3,326.5,-0.7,1.8,2470.291,13.32,0.082,311.1
2020-04-19T01:28:03,42.805,6.029,-0.053,0.063,-0.012,104.0,116.0,101.0,13.4,1505.3,325.7,-0.7,1.8,2470.296,13.32,0.082,319.9
2020-04-19T01:31:03,42.805,6.029,-0.076,0.045,-0.038,103.0,115.0,101.0,13.4,1505.3,325.4,-0.7,1.8,2470.254,13.32,0.088,300.6
2020-04-19T01:34:03,42.805,6.029,-0.041,0.059,0.004,104.0,115.0,101.0,13.3,1505.3,325.7,-0.7,1.8,2470.242,13.32,0.071,325.2
2020-04-19T01:37:03,42.805,6.029,-0.05,0.058,0.013,104.0,114.0,103.0,13.4,1505.3,327.1,-0.7,1.8,2470.295,13.32,0.076,319.2
2020-04-19T01:40:03,42.805,6.029,-0.047,0.033,-0.033,104.0,114.0,101.0,13.4,1505.3,326.9,-0.7,1.8,2470.277,13.32,0.057,305.1
2020-04-19T01:43:03,42.805,6.029,-0.031,0.055,0.008,103.0,114.0,101.0,13.4,1505.3,325.7,-0.7,1.8,2470.299,13.32,0.063,330.6
2020-04-19T01:46:03,42.805,6.029,-0.035,0.043,-0.017,103.0,115.0,102.0,13.4,1505.3,323.3,-0.7,1.8,2470.22,13.32,0.055,320.9
2020-04-19T01:49:03,42.805,6.029,-0.046,0.056,0.004,103.0,115.0,101.0,13.3,1505.3,323.1,-0.7,1.8,2470.288,13.32,0.072,320.6
2020-04-19T01:52:03,42.805,6.029,-0.059,0.04,-0.006,104.0,116.0,101.0,13.3,1505.3,323.6,-0.7,1.8,2470.258,13.32,0.071,304.1
2020-04-19T01:55:03,42.805,6.029,-0.034,0.055,-0.011,104.0,115.0,101.0,13.4,1505.3,324.8,-0.7,1.8,2470.282,13.32,0.064,328.3
2020-04-19T01:58:03,42.805,6.029,-0.028,0.064,0.006,103.0,114.0,102.0,13.4,1505.3,327.6,-0.7,1.8,2470.276,13.32,0.069,336.4
2020-04-19T02:04:03,42.805,6.029,-0.035,0.044,-0.003,104.0,114.0,101.0,13.4,1505.2,326.8,-0.7,1.8,2470.317,13.3,0.056,321.5
2020-04-19T02:07:03,42.805,6.029,-0.035,0.05,-0.011,103.0,115.0,102.0,13.4,1505.3,325.3,-0.7,1.8,2470.325,13.31,0.061,325.0
2020-04-19T02:10:03,42.805,6.029,-0.06,0.043,-0.023,103.0,114.0,100.0,13.4,1505.3,325.3,-0.7,1.8,2470.305,13.32,0.073,305.6
2020-04-19T02:13:02,42.805,6.029,-0.049,0.038,-0.005,104.0,113.0,101.0,13.3,1505.3,324.1,-0.7,1.8,2470.326,13.32,0.062,307.8
2020-04-19T02:16:03,42.805,6.029,-0.032,0.046,-0.005,104.0,114.0,100.0,13.4,1505.3,326.2,-0.7,1.8,2470.305,13.32,0.056,325.2
2020-04-19T02:19:02,42.805,6.029,-0.036,0.046,-0.004,103.0,113.0,101.0,13.4,1505.3,323.6,-0.7,1.8,2470.29,13.32,0.058,322.0
2020-04-19T02:22:02,42.805,6.029,-0.058,0.043,-0.017,105.0,116.0,101.0,13.4,1505.3,325.6,-0.7,1.8,2470.327,13.32,0.072,306.6
2020-04-19T02:25:02,42.805,6.029,-0.028,0.054,0.021,104.0,113.0,100.0,13.4,1505.3,325.5,-0.7,1.8,2470.306,13.32,0.06,332.6
2020-04-19T02:28:03,42.805,6.029,-0.069,0.039,-0.046,104.0,113.0,102.0,13.4,1505.3,324.7,-0.7,1.8,2470.318,13.32,0.079,299.5
2020-04-19T02:31:02,42.805,6.029,-0.047,0.042,0.02,103.0,115.0,102.0,13.3,1505.3,326.5,-0.7,1.8,2470.309,13.32,0.063,311.8
2020-04-19T02:34:02,42.805,6.029,-0.026,0.05,0.003,103.0,115.0,101.0,13.4,1505.3,323.6,-0.7,1.8,2470.361,13.32,0.056,332.5
2020-04-19T02:37:02,42.805,6.029,-0.039,0.036,0.004,103.0,114.0,101.0,13.4,1505.3,326.8,-0.7,1.8,2470.316,13.32,0.053,312.7
2020-04-19T02:40:03,42.805,6.029,-0.062,0.045,-0.019,104.0,114.0,100.0,13.4,1505.3,326.5,-0.7,1.9,2470.29,13.32,0.076,306.0
2020-04-19T02:43:02,42.805,6.029,-0.049,0.054,0.032,103.0,114.0,102.0,13.4,1505.3,327.2,-0.7,1.8,2470.346,13.32,0.072,317.8
2020-04-19T02:46:02,42.805,6.029,-0.055,0.046,-0.035,102.0,115.0,103.0,13.4,1505.3,325.6,-0.7,1.8,2470.299,13.32,0.071,309.9
2020-04-19T02:49:02,42.805,6.029,-0.004,0.049,0.015,102.0,115.0,102.0,13.4,1505.3,326.7,-0.7,1.8,2470.341,13.32,0.049,355.3
2020-04-19T02:52:02,42.805,6.029,-0.048,0.031,0.0,104.0,115.0,101.0,13.4,1505.3,324.5,-0.7,1.9,2470.316,13.32,0.057,302.9
2020-04-19T02:58:02,42.805,6.029,-0.076,0.039,-0.049,104.0,115.0,102.0,13.3,1505.2,323.4,-0.7,1.8,2470.406,13.3,0.085,297.2
2020-04-19T03:04:02,42.805,6.029,-0.044,0.043,0.015,104.0,114.0,102.0,13.4,1505.2,323.7,-0.7,1.8,2470.406,13.3,0.061,314.3
2020-04-19T03:07:02,42.805,6.029,-0.056,0.064,-0.015,105.0,116.0,101.0,13.4,1505.3,324.8,-0.7,1.8,2470.376,13.31,0.085,318.8
2020-04-19T03:10:02,42.805,6.029,-0.054,0.038,-0.018,105.0,115.0,102.0,13.4,1505.3,328.2,-0.7,1.8,2470.392,13.31,0.066,305.1
2020-04-19T03:13:02,42.805,6.029,-0.04,0.043,-0.002,103.0,117.0,101.0,13.4,1505.3,326.7,-0.7,1.8,2470.411,13.32,0.058,317.1
2020-04-19T03:16:02,42.805,6.029,-0.068,0.048,-0.04,103.0,115.0,101.0,13.3,1505.3,328.1,-0.7,1.8,2470.377,13.32,0.083,305.2
2020-04-19T03:19:02,42.805,6.029,-0.049,0.042,-0.007,103.0,113.0,101.0,13.3,1505.3,323.5,-0.7,1.8,2470.374,13.32,0.064,310.6
2020-04-19T03:22:02,42.805,6.029,-0.024,0.041,0.008,104.0,115.0,100.0,13.4,1505.3,325.7,-0.7,1.8,2470.366,13.32,0.047,329.7
2020-04-19T03:25:02,42.805,6.029,-0.051,0.061,-0.002,103.0,114.0,101.0,13.4,1505.3,326.5,-0.7,1.9,2470.365,13.32,0.079,320.1
2020-04-19T03:28:02,42.805,6.029,-0.039,0.038,-0.028,103.0,112.0,101.0,13.3,1505.3,324.4,-0.7,1.9,2470.36,13.32,0.054,314.3
2020-04-19T03:31:02,42.805,6.029,-0.053,0.031,-0.012,104.0,113.0,102.0,13.3,1505.3,325.5,-0.7,1.8,2470.367,13.32,0.061,300.3
2020-04-19T03:34:02,42.805,6.029,-0.036,0.055,-0.001,103.0,114.0,101.0,13.4,1505.3,326.4,-0.7,1.8,2470.366,13.32,0.065,326.8
2020-04-19T03:37:02,42.805,6.029,-0.024,0.025,-0.028,103.0,114.0,102.0,13.3,1505.3,324.8,-0.7,1.9,2470.334,13.32,0.034,316.2
2020-04-19T03:40:02,42.805,6.029,-0.055,0.037,0.013,104.0,116.0,100.0,13.4,1505.3,326.2,-0.7,1.8,2470.357,13.32,0.066,303.9
2020-04-19T03:43:02,42.805,6.029,-0.045,0.06,0.0,104.0,117.0,100.0,13.4,1505.3,326.3,-0.7,1.8,2470.371,13.32,0.074,323.1
2020-04-19T03:46:02,42.805,6.029,-0.035,0.053,-0.018,103.0,113.0,102.0,13.4,1505.3,326.3,-0.7,1.8,2470.354,13.32,0.063,326.6
2020-04-19T03:49:02,42.805,6.029,-0.049,0.052,0.021,103.0,116.0,102.0,13.4,1505.3,326.3,-0.7,1.8,2470.389,13.32,0.071,316.7
2020-04-19T03:52:02,42.805,6.029,-0.024,0.056,0.004,104.0,116.0,101.0,13.3,1505.3,328.1,-0.7,1.8,2470.316,13.32,0.06,336.8
2020-04-19T03:55:02,42.805,6.029,-0.025,0.038,-0.031,103.0,115.0,101.0,13.4,1505.3,327.9,-0.7,1.8,2470.342,13.32,0.045,326.7
2020-04-19T03:58:02,42.805,6.029,-0.039,0.048,-0.009,104.0,112.0,100.0,13.3,1505.3,324.7,-0.7,1.9,2470.372,13.32,0.061,320.9
2020-04-19T04:04:02,42.805,6.029,-0.008,0.051,-0.004,103.0,113.0,101.0,13.4,1505.2,325.0,-0.7,1.9,2470.409,13.3,0.051,351.1
2020-04-19T04:07:02,42.805,6.029,-0.031,0.058,-0.004,103.0,115.0,101.0,13.3,1505.3,324.7,-0.7,1.8,2470.441,13.31,0.065,331.9
2020-04-19T04:10:02,42.805,6.029,-0.05,0.042,-0.014,103.0,115.0,101.0,13.3,1505.3,326.5,-0.7,1.8,2470.378,13.32,0.065,310.0
2020-04-19T04:13:02,42.805,6.029,-0.057,0.051,0.025,102.0,116.0,101.0,13.4,1505.3,326.9,-0.7,1.9,2470.393,13.32,0.076,311.8
2020-04-19T04:16:02,42.805,6.029,-0.035,0.037,-0.004,103.0,117.0,101.0,13.4,1505.3,326.5,-0.7,1.8,2470.381,13.32,0.05,316.6
2020-04-19T04:19:02,42.805,6.029,-0.043,0.049,0.013,104.0,115.0,101.0,13.3,1505.3,323.8,-0.7,1.9,2470.375,13.32,0.065,318.7
2020-04-19T04:22:02,42.805,6.029,-0.037,0.06,0.026,103.0,115.0,100.0,13.4,1505.3,323.1,-0.7,1.9,2470.39,13.32,0.07,328.3
2020-04-19T04:25:02,42.805,6.029,0.001,0.063,0.056,103.0,116.0,100.0,13.4,1505.3,328.0,-0.7,1.8,2470.384,13.32,0.063,0.9
2020-04-19T04:28:02,42.805,6.029,-0.051,0.065,0.024,103.0,117.0,101.0,13.3,1505.3,326.5,-0.7,1.8,2470.373,13.32,0.082,321.9
2020-04-19T04:31:02,42.805,6.029,-0.043,0.038,-0.001,106.0,116.0,101.0,13.4,1505.3,323.9,-0.7,1.8,2470.378,13.32,0.057,311.5
2020-04-19T04:34:02,42.805,6.029,-0.022,0.049,0.018,102.0,118.0,100.0,13.4,1505.3,326.7,-0.7,1.8,2470.432,13.32,0.053,335.8
2020-04-19T04:37:02,42.805,6.029,-0.027,0.053,-0.021,101.0,117.0,100.0,13.4,1505.3,324.5,-0.7,1.9,2470.385,13.32,0.059,333.0
2020-04-19T04:40:02,42.805,6.029,-0.028,0.048,0.005,102.0,115.0,99.0,13.4,1505.3,323.0,-0.7,1.8,2470.397,13.32,0.055,329.7
2020-04-19T04:43:02,42.805,6.029,-0.058,0.047,-0.041,102.0,116.0,101.0,13.4,1505.3,328.2,-0.7,1.8,2470.41,13.32,0.074,309.0
2020-04-19T04:46:02,42.805,6.029,-0.044,0.033,-0.02,102.0,115.0,101.0,13.3,1505.3,325.2,-0.7,1.8,2470.396,13.32,0.055,306.9
2020-04-19T04:49:02,42.805,6.029,-0.043,0.072,0.021,102.0,116.0,100.0,13.4,1505.3,325.8,-0.7,1.8,2470.353,13.32,0.083,329.2
2020-04-19T04:52:02,42.805,6.029,-0.048,0.046,-0.009,102.0,116.0,100.0,13.3,1505.3,323.5,-0.7,1.8,2470.405,13.32,0.066,313.8
2020-04-19T04:55:02,42.805,6.029,-0.028,0.049,0.033,102.0,116.0,101.0,13.3,1505.3,327.2,-0.7,1.8,2470.378,13.32,0.056,330.3
2020-04-19T04:58:02,42.805,6.029,-0.038,0.049,0.023,102.0,114.0,100.0,13.4,1505.3,326.2,-0.6,1.9,2470.419,13.32,0.062,322.2
2020-04-19T05:04:02,42.805,6.029,-0.023,0.073,0.011,104.0,115.0,101.0,13.4,1505.2,326.5,-0.7,1.8,2470.426,13.3,0.076,342.5
2020-04-19T05:07:02,42.805,6.029,-0.042,0.058,-0.003,102.0,117.0,101.0,13.4,1505.3,325.1,-0.7,1.8,2470.43,13.31,0.071,324.1
2020-04-19T05:10:02,42.805,6.029,-0.041,0.034,-0.014,103.0,115.0,101.0,13.4,1505.3,327.2,-0.7,1.8,2470.415,13.32,0.053,309.7
2020-04-19T05:13:02,42.805,6.029,-0.055,0.047,-0.018,104.0,117.0,101.0,13.4,1505.3,324.9,-0.7,1.8,2470.409,13.32,0.072,310.5
2020-04-19T05:16:02,42.805,6.029,-0.023,0.048,0.019,103.0,116.0,101.0,13.4,1505.3,326.5,-0.7,1.9,2470.434,13.32,0.053,334.4
2020-04-19T05:19:02,42.805,6.029,-0.029,0.062,-0.005,103.0,115.0,101.0,13.4,1505.3,326.2,-0.7,1.8,2470.435,13.32,0.068,334.9
2020-04-19T05:22:02,42.805,6.029,-0.044,0.056,-0.014,103.0,116.0,102.0,13.4,1505.3,328.1,-0.7,1.8,2470.399,13.32,0.071,321.8
2020-04-19T05:25:02,42.805,6.029,-0.05,0.052,-0.022,103.0,115.0,100.0,13.4,1505.3,324.2,-0.7,1.8,2470.416,13.32,0.072,316.1
2020-04-19T05:28:02,42.805,6.029,-0.038,0.052,0.012,102.0,117.0,101.0,13.4,1505.3,324.5,-0.7,1.8,2470.436,13.32,0.064,323.8
2020-04-19T05:31:03,42.805,6.029,-0.03,0.053,-0.01,104.0,115.0,101.0,13.3,1505.3,325.5,-0.7,1.8,2470.383,13.32,0.06,330.5
2020-04-19T05:34:02,42.805,6.029,-0.039,0.032,-0.019,103.0,116.0,101.0,13.4,1505.3,326.2,-0.8,1.9,2470.382,13.33,0.05,309.4
2020-04-19T05:37:02,42.805,6.029,-0.046,0.059,-0.007,103.0,115.0,101.0,13.4,1505.3,327.1,-0.7,1.8,2470.363,13.32,0.074,322.1
2020-04-19T05:40:02,42.805,6.029,-0.034,0.055,0.007,104.0,116.0,101.0,13.4,1505.3,323.7,-0.7,1.8,2470.4,13.32,0.064,328.3
2020-04-19T05:43:02,42.805,6.029,-0.056,0.061,-0.034,102.0,118.0,101.0,13.4,1505.3,328.5,-0.7,1.8,2470.474,13.33,0.082,317.4
2020-04-19T05:46:03,42.805,6.029,-0.03,0.063,0.009,104.0,117.0,101.0,13.4,1505.3,323.8,-0.7,1.9,2470.414,13.33,0.069,334.5
2020-04-19T05:49:02,42.805,6.029,-0.037,0.032,-0.004,103.0,117.0,100.0,13.4,1505.3,324.5,-0.7,1.8,2470.441,13.33,0.048,310.9
2020-04-19T05:52:02,42.805,6.029,-0.042,0.044,-0.01,104.0,117.0,101.0,13.4,1505.3,327.2,-0.7,1.8,2470.402,13.32,0.06,316.3
2020-04-19T05:55:02,42.805,6.029,-0.016,0.047,0.006,104.0,117.0,101.0,13.3,1505.3,324.0,-0.7,1.8,2470.376,13.32,0.049,341.2
2020-04-19T05:58:03,42.805,6.029,-0.045,0.054,-0.039,102.0,117.0,100.0,13.4,1505.3,328.4,-0.7,1.8,2470.419,13.32,0.07,320.2
2020-04-19T06:04:03,42.805,6.029,-0.052,0.033,-0.005,101.0,117.0,101.0,13.3,1505.2,325.3,-0.7,1.8,2470.445,13.3,0.061,302.4
2020-04-19T06:07:02,42.805,6.029,-0.048,0.055,-0.005,103.0,116.0,100.0,13.3,1505.3,326.8,-0.7,1.8,2470.422,13.31,0.072,318.9
2020-04-19T06:10:02,42.805,6.029,-0.059,0.046,-0.032,103.0,116.0,101.0,13.3,1505.3,324.5,-0.7,1.8,2470.412,13.32,0.074,307.9
2020-04-19T06:13:03,42.805,6.029,-0.06,0.053,0.0,102.0,117.0,100.0,13.3,1505.3,324.4,-0.7,1.8,2470.399,13.32,0.08,311.5
2020-04-19T06:16:02,42.805,6.029,-0.053,0.029,-0.036,103.0,116.0,100.0,13.3,1505.3,323.5,-0.7,1.8,2470.393,13.32,0.06,298.7
2020-04-19T06:19:02,42.805,6.029,-0.039,0.048,0.012,103.0,113.0,101.0,13.4,1505.3,325.3,-0.7,1.8,2470.358,13.32,0.061,320.9
2020-04-19T06:22:02,42.805,6.029,-0.039,0.038,-0.006,104.0,117.0,100.0,13.4,1505.3,323.4,-0.7,1.8,2470.418,13.32,0.054,314.3
2020-04-19T06:25:02,42.805,6.029,-0.037,0.064,0.0,103.0,119.0,100.0,13.4,1505.3,327.4,-0.7,1.8,2470.374,13.32,0.073,330.0
2020-04-19T06:28:02,42.805,6.029,-0.036,0.054,-0.003,103.0,115.0,100.0,13.4,1505.3,325.6,-0.7,1.9,2470.357,13.32,0.064,326.3
2020-04-19T06:31:02,42.805,6.029,-0.023,0.049,0.011,102.0,116.0,101.0,13.4,1505.3,323.5,-0.7,1.8,2470.462,13.32,0.054,334.9
2020-04-19T06:34:03,42.805,6.029,-0.043,0.051,-0.025,102.0,117.0,99.0,13.4,1505.3,326.5,-0.7,1.8,2470.414,13.32,0.066,319.9
2020-04-19T06:37:02,42.805,6.029,-0.053,0.035,-0.005,103.0,114.0,101.0,13.4,1505.3,325.9,-0.7,1.8,2470.367,13.32,0.063,303.4
2020-04-19T06:40:02,42.805,6.029,-0.052,0.028,-0.023,104.0,115.0,101.0,13.4,1505.3,325.9,-0.7,1.9,2470.396,13.33,0.059,298.3
2020-04-19T06:43:02,42.805,6.029,-0.05,0.057,0.0,102.0,117.0,100.0,13.4,1505.3,325.7,-0.7,1.9,2470.371,13.33,0.075,318.7
2020-04-19T06:46:02,42.805,6.029,-0.043,0.045,-0.003,102.0,118.0,101.0,13.4,1505.3,324.7,-0.7,1.8,2470.365,13.33,0.062,316.3
2020-04-19T06:49:02,42.805,6.029,-0.022,0.058,0.008,103.0,118.0,100.0,13.3,1505.3,324.6,-0.7,1.9,2470.408,13.33,0.062,339.2
2020-04-19T06:52:02,42.805,6.029,-0.027,0.058,-0.029,102.0,119.0,100.0,13.4,1505.3,326.4,-0.7,1.9,2470.353,13.33,0.063,335.0
2020-04-19T06:55:02,42.805,6.029,-0.018,0.052,0.004,102.0,118.0,100.0,13.4,1505.3,325.5,-0.7,1.8,2470.389,13.33,0.055,340.9
2020-04-19T06:58:03,42.805,6.029,-0.028,0.055,0.002,103.0,117.0,101.0,13.4,1505.3,326.6,-0.8,1.8,2470.428,13.33,0.061,333.0
2020-04-19T07:04:02,42.805,6.029,-0.03,0.048,-0.012,104.0,117.0,100.0,13.4,1505.3,327.0,-0.8,1.8,2470.398,13.31,0.056,328.0
2020-04-19T07:07:02,42.805,6.029,-0.031,0.046,0.006,102.0,117.0,101.0,13.4,1505.3,327.8,-0.7,1.8,2470.385,13.31,0.055,326.0
2020-04-19T07:10:02,42.805,6.029,-0.037,0.049,-0.049,102.0,117.0,99.0,13.3,1505.3,326.2,-0.7,1.9,2470.419,13.32,0.061,322.9
2020-04-19T07:13:02,42.805,6.029,-0.021,0.054,0.014,104.0,116.0,100.0,13.4,1505.3,326.0,-0.7,1.8,2470.369,13.32,0.057,338.8
2020-04-19T07:16:03,42.805,6.029,-0.063,0.045,-0.044,102.0,117.0,100.0,13.4,1505.3,327.0,-0.7,1.9,2470.386,13.32,0.077,305.5
2020-04-19T07:19:02,42.805,6.029,-0.069,0.058,-0.033,102.0,116.0,101.0,13.4,1505.3,327.4,-0.7,1.8,2470.361,13.32,0.09,310.0
2020-04-19T07:22:02,42.805,6.029,-0.098,0.05,-0.042,101.0,117.0,99.0,13.4,1505.3,323.1,-0.7,1.9,2470.391,13.32,0.11,297.0
2020-04-19T07:25:02,42.805,6.029,-0.015,0.047,-0.002,102.0,115.0,100.0,13.3,1505.3,326.4,-0.7,1.8,2470.389,13.32,0.049,342.3
2020-04-19T07:28:03,42.805,6.029,-0.043,0.076,-0.039,104.0,117.0,100.0,13.4,1505.3,326.1,-0.7,1.8,2470.341,13.33,0.087,330.5
2020-04-19T07:31:02,42.805,6.029,-0.048,0.032,0.001,101.0,116.0,101.0,13.3,1505.3,324.5,-0.7,1.8,2470.34,13.33,0.057,303.7
2020-04-19T07:34:02,42.805,6.029,-0.051,0.037,-0.032,102.0,116.0,100.0,13.4,1505.3,324.9,-0.7,1.8,2470.351,13.33,0.063,306.0
2020-04-19T07:37:02,42.805,6.029,-0.031,0.039,-0.025,104.0,116.0,99.0,13.4,1505.3,325.4,-0.7,1.8,2470.344,13.33,0.049,321.5
2020-04-19T07:40:03,42.805,6.029,-0.057,0.045,-0.003,102.0,116.0,100.0,13.3,1505.3,326.4,-0.7,1.8,2470.36,13.33,0.072,308.3
2020-04-19T07:43:03,42.805,6.029,-0.037,0.052,-0.011,102.0,114.0,100.0,13.3,1505.3,326.5,-0.7,1.8,2470.377,13.33,0.063,324.6
2020-04-19T07:46:03,42.805,6.029,-0.038,0.029,-0.031,104.0,116.0,100.0,13.4,1505.3,325.3,-0.7,1.8,2470.375,13.33,0.047,307.3
2020-04-19T07:49:02,42.805,6.029,-0.002,0.072,0.052,102.0,117.0,100.0,13.4,1505.3,323.5,-0.7,1.9,2470.366,13.33,0.072,358.4
2020-04-19T07:52:02,42.805,6.029,-0.036,0.064,0.015,102.0,117.0,100.0,13.4,1505.3,325.5,-0.7,1.8,2470.336,13.33,0.073,330.6
2020-04-19T07:55:02,42.805,6.029,-0.041,0.053,-0.012,102.0,116.0,100.0,13.4,1505.3,324.6,-0.7,1.9,2470.342,13.33,0.067,322.3
2020-04-19T07:58:03,42.805,6.029,-0.037,0.062,0.02,102.0,118.0,100.0,13.4,1505.3,325.1,-0.7,1.8,2470.351,13.33,0.072,329.2
2020-04-19T08:04:02,42.805,6.029,-0.028,0.057,0.016,102.0,114.0,101.0,13.3,1505.3,326.0,-0.7,1.8,2470.364,13.31,0.063,333.8
2020-04-19T08:07:02,42.805,6.029,-0.033,0.056,-0.003,102.0,114.0,103.0,13.4,1505.3,326.9,-0.7,1.8,2470.33,13.31,0.064,329.5
2020-04-19T08:10:03,42.805,6.029,-0.062,0.044,-0.032,102.0,116.0,101.0,13.4,1505.3,327.0,-0.7,1.8,2470.382,13.32,0.076,305.4
2020-04-19T08:13:03,42.805,6.029,-0.046,0.034,-0.058,102.0,116.0,99.0,13.4,1505.3,322.9,-0.7,1.9,2470.379,13.32,0.057,306.5
2020-04-19T08:16:02,42.805,6.029,-0.02,0.079,-0.003,102.0,117.0,99.0,13.4,1505.3,327.2,-0.7,1.8,2470.378,13.32,0.081,345.8
2020-04-19T08:19:03,42.805,6.029,-0.053,0.033,-0.02,103.0,117.0,101.0,13.3,1505.3,324.5,-0.7,1.9,2470.342,13.32,0.062,301.9
2020-04-19T08:22:02,42.805,6.029,-0.049,0.051,-0.001,102.0,119.0,100.0,13.4,1505.3,323.4,-0.7,1.9,2470.354,13.32,0.07,316.1
2020-04-19T08:25:03,42.805,6.029,-0.054,0.047,-0.021,103.0,116.0,100.0,13.3,1505.3,326.9,-0.7,1.8,2470.357,13.32,0.071,311.0
2020-04-19T08:28:03,42.805,6.029,-0.05,0.045,-0.013,101.0,114.0,102.0,13.3,1505.3,325.1,-0.7,1.8,2470.341,13.33,0.067,312.0
2020-04-19T08:31:03,42.805,6.029,-0.03,0.032,0.0,102.0,115.0,100.0,13.4,1505.3,328.3,-0.7,1.8,2470.323,13.33,0.043,316.9
2020-04-19T08:34:02,42.805,6.029,-0.017,0.054,0.005,102.0,116.0,101.0,13.4,1505.3,326.2,-0.7,1.8,2470.335,13.33,0.056,342.5
2020-04-19T08:37:02,42.805,6.029,-0.029,0.049,-0.01,100.0,115.0,100.0,13.3,1505.3,328.2,-0.7,1.8,2470.321,13.33,0.056,329.4
2020-04-19T08:40:03,42.805,6.029,-0.035,0.045,0.018,101.0,116.0,101.0,13.4,1505.3,323.8,-0.7,1.8,2470.329,13.33,0.057,322.1
2020-04-19T08:43:03,42.805,6.029,-0.046,0.054,0.006,103.0,116.0,100.0,13.4,1505.3,325.3,-0.7,1.8,2470.295,13.33,0.07,319.6
2020-04-19T08:46:03,42.805,6.029,-0.036,0.04,-0.018,101.0,117.0,100.0,13.4,1505.3,323.5,-0.7,1.8,2470.318,13.33,0.053,318.0
2020-04-19T08:49:02,42.805,6.029,-0.025,0.057,0.024,103.0,117.0,99.0,13.4,1505.3,326.8,-0.7,1.8,2470.317,13.33,0.062,336.3
2020-04-19T08:52:02,42.805,6.029,-0.003,0.024,-0.037,102.0,116.0,99.0,13.4,1505.3,326.6,-0.7,1.8,2470.331,13.33,0.024,352.9
2020-04-19T08:55:03,42.805,6.029,-0.04,0.038,-0.034,102.0,113.0,100.0,13.4,1505.3,324.3,-0.7,1.8,2470.327,13.33,0.055,313.5
2020-04-19T08:58:03,42.805,6.029,-0.036,0.04,-0.03,102.0,115.0,101.0,13.3,1505.3,326.1,-0.7,1.9,2470.319,13.33,0.053,318.0
2020-04-19T09:04:02,42.805,6.029,-0.018,0.053,0.005,101.0,117.0,99.0,13.3,1505.3,328.2,-0.7,1.9,2470.332,13.31,0.055,341.2
2020-04-19T09:07:02,42.805,6.029,-0.018,0.038,-0.002,101.0,117.0,100.0,13.4,1505.3,327.5,-0.7,1.8,2470.344,13.31,0.042,334.7
2020-04-19T09:10:03,42.805,6.029,-0.042,0.053,-0.044,102.0,116.0,100.0,13.4,1505.3,327.7,-0.7,1.8,2470.281,13.32,0.067,321.6
2020-04-19T09:13:02,42.805,6.029,-0.046,0.059,-0.026,102.0,113.0,100.0,13.4,1505.3,326.4,-0.7,1.9,2470.343,13.32,0.074,322.1
2020-04-19T09:16:03,42.805,6.029,-0.059,0.043,-0.016,103.0,116.0,100.0,13.4,1505.3,327.7,-0.7,1.8,2470.347,13.32,0.073,306.1
2020-04-19T09:19:02,42.805,6.029,-0.045,0.044,-0.03,102.0,115.0,99.0,13.3,1505.3,325.1,-0.7,1.8,2470.333,13.32,0.062,314.4
2020-04-19T09:22:02,42.805,6.029,-0.069,0.04,-0.033,102.0,116.0,101.0,13.3,1505.3,323.3,-0.7,1.8,2470.321,13.32,0.079,300.1
2020-04-19T09:25:02,42.805,6.029,-0.064,0.044,-0.026,102.0,117.0,98.0,13.4,1505.3,325.8,-0.7,1.8,2470.358,13.32,0.077,304.5
2020-04-19T09:28:03,42.805,6.029,-0.019,0.054,-0.033,102.0,116.0,101.0,13.4,1505.3,326.6,-0.7,1.8,2470.278,13.33,0.057,340.6
2020-04-19T09:31:03,42.805,6.029,-0.044,0.029,-0.006,102.0,115.0,101.0,13.3,1505.3,326.6,-0.7,1.8,2470.321,13.33,0.052,303.4
2020-04-19T09:34:03,42.805,6.029,-0.051,0.025,-0.044,103.0,116.0,99.0,13.4,1505.3,327.4,-0.7,1.8,2470.264,13.33,0.056,296.1
2020-04-19T09:37:02,42.805,6.029,-0.036,0.058,0.006,103.0,115.0,100.0,13.4,1505.3,327.6,-0.7,1.8,2470.303,13.33,0.068,328.2
2020-04-19T09:40:03,42.805,6.029,-0.063,0.046,-0.017,103.0,116.0,100.0,13.4,1505.3,326.4,-0.7,1.8,2470.283,13.33,0.078,306.1
2020-04-19T09:43:03,42.805,6.029,-0.032,0.059,-0.013,103.0,115.0,100.0,13.4,1505.3,326.8,-0.7,1.8,2470.257,13.33,0.067,331.5
2020-04-19T09:46:03,42.805,6.029,-0.067,0.039,-0.048,104.0,117.0,101.0,13.4,1505.3,326.7,-0.7,1.8,2470.294,13.33,0.077,300.2
2020-04-19T09:49:03,42.805,6.029,-0.022,0.051,0.008,102.0,117.0,99.0,13.3,1505.3,326.4,-0.7,1.8,2470.308,13.33,0.055,336.7
2020-04-19T09:52:02,42.805,6.029,-0.049,0.017,-0.042,101.0,116.0,101.0,13.3,1505.3,326.6,-0.7,1.9,2470.285,13.33,0.051,289.1
2020-04-19T09:55:02,42.805,6.029,-0.056,0.05,-0.005,105.0,115.0,100.0,13.4,1505.3,326.6,-0.7,1.8,2470.271,13.33,0.075,311.8
2020-04-19T09:58:03,42.805,6.029,-0.048,0.048,-0.023,101.0,115.0,100.0,13.3,1505.3,324.5,-0.7,1.8,2470.247,13.33,0.067,315.0
2020-04-19T10:04:02,42.805,6.029,-0.035,0.044,-0.011,102.0,115.0,100.0,13.4,1505.3,327.2,-0.7,1.8,2470.312,13.31,0.056,321.5